Find Starlink 30864

NORAD ID: 58243 Int'l Des: 2023-171 Owner: SPXS Country: US Constellation: starlink operational
LEOCIRCULAR

Live Position

Loading 3D Globe...

About Starlink 30864

Description loading...

Upcoming Passes

Passes for default location (London). Set your location on the main map for personalized predictions.

Altitude History

Loading altitude history...

Two-Line Element Set

1 58243U 23171P 26126.55514814 -.00001730 00000-0 -53368-4 0 9998
2 58243 42.9968 318.4922 0001663 239.2968 120.7720 15.27567961138488
Epoch: May 6, 2026 • Age: 10 hours

Current Status

Altitude 488.8 km
Velocity 7.62 km/s
Sub-Earth Point -26.61°S, 52.01°W
Launch Date Nov 8, 2023
Age 2.4 years
Type internet

Technical Details

Classification Payload
Mass 730.00 kg
Dry Mass 700.00 kg
Total Mass 730.00 kg
Length 0.30 m
Diameter 4.10 m
Span 29.00 m
Shape Box + pan
Manufacturer SPXS
Bus Type Starlink V2M
Phase Status In Orbit
Owner/State SPXS/US

Most Searched